www.pogodaiklimat.ru

Погода и климат >> Архив погоды >> Россия >> Краснодарский край >> Красная Поляна


ПОГОДА в Красной Поляне

  • Прогноз погоды в Красной Поляне
  • Монитор погоды в Красной Поляне
  • Климат города

АРХИВ ПОГОДЫ в Красной Поляне

Время (UTC), дата Ветер
(напр.,м/с)
 
Видим.   Явления Облачность Т
(С)
Тd
(С)
f
(%)
Тe
(С)
Тes
(С)
Комфортность P
(гПа)
Po
(гПа)
Тmin
(С)
Tmax
(С)
R
(мм)
R24
(мм)
S
(см)
00 11.11 штиль 0 20 км ясно +4.3 +1.3 81 +3 +3 1023.9 955.6
03 11.11 СВ 1 20 км ясно +4.4 +0.9 78 +3 +3 1023.7 955.4 +3.8
06 11.11 штиль 0 20 км ясно +4.6 +1.3 79 +4 +5 1024.2 955.9 +3.2
09 11.11 Ю 1 20 км 3/0
[Ac cast Ci fib]
+13.2 +1.5 45 +14 +19 1021.2 955.1
12 11.11 ЮЗ 2 20 км 1/1 1500 м
[Cu hum]
+16.7 +5.0 46 +17 +19 1020.1 954.9
15 11.11 С 1 19 км 1/0
[Ac lent]
+10.3 +4.0 65 +10 +10 1022.8 956.0 +17.9
18 11.11 С 1 20 км ясно +7.9 +3.0 71 +7 +7 1024.1 956.6
21 11.11 штиль 0 19 км 6/0
[Ac As Ci sp]
+5.8 +3.0 82 +5 +5 1025.6 957.5
00 12.11 штиль 0 20 км 10/1 1000 м
[Sc Ac As]
+5.4 +3.1 85 +4 +4 1026.0 957.8
03 12.11 штиль 0 20 км 10/9 1500 м
[Sc Ac As]
+6.2 +2.7 78 +5 +5 1025.7 957.7 +4.5
06 12.11 штиль 0 20 км 10/10 1500 м
[Sc]
+7.2 +3.1 75 +6 +6 1025.9 958.1
09 12.11 штиль 0 8000 м слабый ливневой дождь 10/10 600 м
[Cb cap]
+8.0 +5.5 84 +7 +7 1025.8 958.3
12 12.11 штиль 0 4200 м слабый ливневой дождь 10/10 700 м
[Cb cap]
+8.7 +8.7 100 +8 +8 1025.3 958.0
15 12.11 В 1 15 км {ливн. осадки} 10/10 600 м
[Sc]
+8.3 +8.2 99 +7 +7 1025.1 957.7 +9.2 2
18 12.11 В 1 4700 м слабый ливневой дождь 10/10 800 м
[Cb cap]
+7.9 +7.9 100 +7 +7 1025.8 958.3
21 12.11 штиль 0 3400 м слабый ливневой дождь 10/10 300 м
[Cb cap]
+7.4 +7.4 100 +6 +6 1026.0 958.3
00 13.11 штиль 0 13 км слабый ливневой дождь 10/10 600 м
[Cb cap]
+7.1 +7.1 100 +6 +6 1025.5 957.8
03 13.11 ЮЗ 1 2500 м слабый ливневой дождь 10/10 300 м
[Cb cap]
+6.8 +6.8 100 +6 +6 1025.5 957.7 +6.5 6
06 13.11 З 1 2000 м дымка {туман} 10/10 330 м
[Sc]
+6.5 +6.5 100 +5 +5 1025.7 957.8 +6.0
09 13.11 штиль 0 4000 м слабый ливневой дождь 10/10 600 м
[Cb calv]
+7.7 +7.7 100 +7 +7 1024.2 956.7
12 13.11 ЮЗ 1 8000 м слабый ливневой дождь 10/10 90 м
[Cb calv]
+6.7 +6.7 100 +5 +5 1023.6 955.9
15 13.11 З 1 20 км {ливн. осадки} 10/10 600 м
[Sc]
+4.9 +4.9 100 +3 +3 1025.0 956.8 +8.2 7
18 13.11 З 1 20 км {ливн. осадки} 10/10 210 м
[Sc]
+4.5 +4.5 100 +3 +3 1025.7 957.3
21 13.11 штиль 0 20 км 10/10 300 м
[Sc]
+4.6 +4.6 100 +3 +3 1024.9 956.6
00 14.11 штиль 0 8000 м 10/10 600 м
[Sc]
+4.6 +4.6 100 +3 +3 1023.6 955.4
03 14.11 штиль 0 7000 м слабый ливневой дождь 10/10 600 м
[Cb calv]
+4.8 +4.8 100 +4 +4 1023.0 954.9 +4.4 1
06 14.11 штиль 0 20 км {ливн. осадки} 10/8 870 м
[Sc Cs]
+5.4 +5.4 100 +4 +4 1022.6 954.7
09 14.11 штиль 0 20 км 10/10 700 м
[Sc]
+7.2 +4.3 82 +6 +6 1021.0 953.6
12 14.11 штиль 0 20 км 10/10 870 м
[Sc]
+8.3 +4.9 79 +8 +8 1019.3 952.2
15 14.11 штиль 0 18 км в посл. час ливневой дождь 10/10 30 м
[Cb cap]
+6.7 +6.7 100 +6 +6 1019.2 951.8 +8.5 0.2
18 14.11 штиль 0 11 км {ливн. осадки} 10/10 300 м
[Sc]
+6.4 +6.4 100 +5 +5 1018.6 951.2
21 14.11 С 1 20 км 10/6 1000 м
[Sc Ac As]
+5.5 +5.5 100 +4 +4 1017.5 949.9
00 15.11 штиль 0 20 км 10/6 1200 м
[Sc Ac As]
+5.2 +5.2 100 +4 +4 1016.1 948.5
03 15.11 штиль 0 20 км слабый ливневой дождь 10/10 1000 м
[Cb cap]
+5.2 +5.2 100 +4 +4 1015.3 947.8 +4.9 0.3
06 15.11 С 1 19 км слабый ливневой дождь 10/10 1320 м
[Cb calv]
+5.3 +5.3 100 +4 +4 1016.2 948.7
09 15.11 ЮЗ 1 4000 м {ливн. осадки} 10/9 600 м
[Sc Ac As]
+8.5 +5.4 81 +8 +8 1014.5 947.8
12 15.11 ЮЗ 1 10 км {ливн. осадки} 10/10 600 м
[Sc]
+9.4 +5.4 76 +9 +9 1015.0 948.5
15 15.11 штиль 0 20 км дымка {ливн. осадки} 10/10 600 м
[Sc]
+7.3 +7.3 100 +6 +6 1017.2 950.1 +11.1 2
18 15.11 штиль 0 4000 м {ливн. осадки} 10/6 600 м
[Sc Ac As Ci sp]
+5.9 +5.9 100 +5 +5 1018.5 951.0
21 15.11 В 1 4000 м дымка 10/10 180 м
[Sc]
+5.5 +5.4 99 +4 +4 1019.8 952.1
00 16.11 СВ 1 20 км 8/6 600 м
[Sc Ci sp]
+3.3 +3.3 100 +2 +2 1020.8 952.5
03 16.11 В 1 20 км 10/10 1000 м
[Sc]
+2.9 +2.9 100 +1 +1 1020.4 952.0 +2.5
06 16.11 штиль 0 20 км в посл. час ливневой дождь 10/10 1000 м
[Cb calv]
+4.6 +3.6 93 +3 +3 1020.7 952.7
09 16.11 ЮВ 1 20 км 10/8 1000 м
[Sc Ac trans]
+7.8 +4.6 80 +7 +7 1019.6 952.4
12 16.11 ЮВ 1 20 км 10/6 1000 м
[Sc Ac lent]
+10.5 +4.4 66 +10 +11 1018.0 951.5
15 16.11 С 1 20 км 10/6 1000 м
[Sc Ac trans]
+7.3 +4.4 82 +6 +6 1019.2 951.9 +11.4 0.1
18 16.11 штиль 0 20 км 10/4 1000 м
[Sc Ac As]
+6.7 +4.4 85 +6 +6 1019.1 951.7
21 16.11 штиль 0 10 км слабый ливневой дождь 10/10 600 м
[Cb cap]
+6.3 +6.2 99 +5 +5 1019.6 952.1
00 17.11 З 1 5000 м слабый ливневой дождь 10/10 700 м
[Cb cap]
+6.4 +6.4 100 +5 +5 1021.2 953.6
03 17.11 СЗ 1 5000 м слабый ливневой дождь 10/10 600 м
[Cb cap]
+6.4 +6.4 100 +5 +5 1023.3 955.6 +5.9 6
06 17.11 С 1 7000 м ливневой дождь 10/10 300 м
[Cb cap]
+5.4 +5.0 97 +4 +4 1026.3 958.1 +5.3
09 17.11 ЮВ 1 20 км слабый ливневой дождь 10/10 480 м
[Cb cap]
+6.2 +5.0 92 +5 +5 1026.7 958.7
12 17.11 ЮЗ 1 9000 м слабый ливневой дождь 10/10 600 м
[Cb cap]
+6.1 +6.1 100 +5 +5 1027.1 959.0
15 17.11 В 1 13 км слабый ливневой дождь 10/10 600 м
[Cb cap]
+5.8 +5.8 100 +4 +4 1028.1 959.9 +6.9 24
18 17.11 С 1 13 км ливневой дождь 10/10 450 м
[Cb cap]
+3.9 +3.9 100 +2 +2 1029.6 960.8

 

Местоположение метеостанции Красная Поляна (Краснодарский край, Россия): широта 43.68 долгота 40.20 высота над уровнем моря 567 м.

В архиве по умолчанию представлена погода в Красной Поляне за последнюю неделю. Архивные данные за месяц целиком и за предыдущие месяцы, начиная с января 2011 года, Вы можете получить, выбрав интересующий диапазон дат из раскрывающегося списка и нажав кнопку "Ввод!".


*Определитесь, кто Вы:
робот инопланетянин человек

Внимание! Время в таблицах - всемирное. Для получения местного времени необходимо прибавить поправку, которая в Красной Поляне равна 3 ч.

Смотрите также архив погоды в соседних городах и на ближайших метеорологических станциях:

Погода в Горная Карусель 1500 (Краснодарский край, Россия) (8 км)
Погода в Горная Карусель 1000 (Краснодарский край, Россия) (8 км)
Погода в Кордоне Лаура (Краснодарский край, Россия) (8 км)
Погода в Кепше (Краснодарский край, Россия) (14 км)
Погода в Гузерипле (Адыгея, Россия) (36 км)
Погода в Сочи (Краснодарский край, Россия) (36 км)
Погода в Сочи аэропорту (Адлер) (Краснодарский край, Россия) (37 км)
Погода в Имеретинке (Краснодарский край, Россия) (37 км)
Погода в Солох Ауле (Краснодарский край, Россия) (48 км)
Погода в Кичмае (Краснодарский край, Россия) (58 км)

Пояснения к столбцам:

Ветер - указаны скорость ветра в м/с - средняя за 10 мин, порывы в срок и между сроками (в фигурных скобках) и направление, откуда дует ветер: С - северный, СВ - северо-восточный, В - восточный, ЮВ - юго-восточный, Ю - южный, ЮЗ - юго-западный, З - западный, СЗ - северо-западный.
Видимость - горизонтальная дальность видимости в метрах или километрах. При видимости от 1 до 10 км при отсутствии осадков обычно наблюдается дымка, при ухудшении видимости до 1 км и менее - туман. В сухую погоду видимость может ухудшаться дымом, пылью или мглою.
Явления - указаны атмосферные явления, наблюдавшиеся в срок или в последний час перед сроком; фигурными скобками обозначены явления, наблюдавшиеся между сроками (за 1-3 часа до срока); квадратными скобками обозначены град или гололедные отложения с указанием их диаметра в мм.
Облачность - указаны через наклонную черту общая и нижняя облачность в баллах и высота нижней границы облаков в метрах; квадратными скобками обозначены формы облаков: Ci - перистые, Cs - перисто-слоистые, Cc - перисто-кучевые, Ac - высококучевые, As - высокослоистые, Sc - слоисто-кучевые, Ns - слоисто-дождевые, Cu - кучевые, Cb - кучево-дождевые. Подробнее классификацию облаков см. в Атласе облаков (PDF).
T - Температура воздуха - температура, измеренная на высоте 2 м над землей.
Td - Температура точки росы - температура, при понижении до которой содержащийся в воздухе водяной пар достигнет насыщения.
f - Относительная влажность воздуха - влажноcть воздуха, измеренная на высоте 2 м над землей.
Te - Эффективная температура - температура, которую ощущает одетый по сезону человек в тени. Характеристика душности погоды. При расчете учитывается влияние влажности воздуха и скорости ветра на теплоощущения человека.
Tes - Эффективная температура на солнце - температура, которую ощущает человек, с поправкой на солнечный нагрев. Характеристика знойности погоды. Зависит от высоты солнца над горизонтом, облачности и скорости ветра. Ночью, в пасмурную погоду, а также при ветре 12 м/с и более поправка равна нулю.
P - Атмосферное давление - приведенное к уровню моря атмосферное давление.
Po - Атмосферное давление - измеренное на уровне метеостанции атмосферное давление.
Tmin - Минимальная температура - минимум температуры воздуха на высоте 2 м над землей.
Tmax - Максимальная температура - максимум температуры воздуха на высоте 2 м над землей.
R - Количество осадков - Количество выпавших осадков за период времени, мм. При наведении курсора мыши на число - период времени, за который выпало указанное количество осадков.
R24 - Количество осадков - Количество выпавших осадков за 24 часа, мм.
S - Снежный покров - Высота снежного покрова, см. При наведении курсора мыши на число - состояние снежного покрова и степень покрытия местности в баллах.